| time (UTC) | temp F | wind direction | speed MPH | gust MPH | rain 1hr in | rain 24hr in | rain mn in | humidity % | barometer mb |
| 20260901053337 | 78 | 221 | 1.0 | 3.0 | 0.00 | 0.00 | 0.00 | 84 | 1017.8 |
| 20260901052339 | 78 | 203 | 1.0 | 6.0 | 0.00 | 0.00 | 0.00 | 84 | 1017.8 |
| 20260901051346 | 78 | 184 | 1.0 | 6.0 | 0.00 | 0.00 | 0.00 | 83 | 1017.6 |
| 20260901045233 | 79 | 183 | 1.0 | 3.0 | 0.00 | 0.00 | 0.00 | 81 | 1017.6 |
| 20260901043134 | 80 | 223 | 0.0 | 1.0 | 0.00 | 0.00 | 0.00 | 81 | 1017.7 |
| 20260901042155 | 80 | 141 | 1.0 | 3.0 | 0.00 | 0.00 | 0.00 | 80 | 1017.6 |
| 20260901041147 | 80 | 155 | 0.0 | 3.0 | 0.00 | 0.00 | 0.00 | 80 | 1017.7 |
| 20260901040143 | 81 | 169 | 1.0 | 3.0 | 0.00 | 0.00 | 0.00 | 80 | 1017.5 |
| 20260901034034 | 81 | 163 | 0.0 | 2.0 | 0.00 | 0.00 | 0.00 | 79 | 1017.7 |
| 20260901033013 | 81 | 222 | 1.0 | 2.0 | 0.00 | 0.00 | 0.00 | 79 | 1017.7 |
| 20260901031952 | 81 | 198 | 0.0 | 1.0 | 0.00 | 0.00 | 0.00 | 78 | 1017.7 |
| 20260901030934 | 82 | 131 | 0.0 | 1.0 | 0.00 | 0.00 | 0.00 | 78 | 1017.7 |
| 20260901025921 | 82 | 162 | 0.0 | 1.0 | 0.00 | 0.00 | 0.00 | 78 | 1017.7 |
| 20260901024913 | 82 | 13 | 0.0 | 1.0 | 0.00 | 0.00 | 0.00 | 78 | 1017.8 |
| 20260901023839 | 83 | 13 | 0.0 | 1.0 | 0.00 | 0.00 | 0.00 | 76 | 1017.7 |
| 20260901022829 | 83 | 189 | 0.0 | 1.0 | 0.00 | 0.00 | 0.00 | 75 | 1017.8 |
| 20260901021843 | 83 | 199 | 0.0 | 1.0 | 0.00 | 0.00 | 0.00 | 75 | 1017.8 |
| 20260901020813 | 84 | 220 | 0.0 | 1.0 | 0.00 | 0.00 | 0.00 | 73 | 1017.6 |
| 20260901015740 | 84 | 239 | 1.0 | 2.0 | 0.00 | 0.00 | 0.00 | 73 | 1017.6 |
| 20260901014742 | 85 | 229 | 1.0 | 4.0 | 0.00 | 0.00 | 0.00 | 72 | 1017.5 |
| 20260901013736 | 85 | 257 | 1.0 | 5.0 | 0.00 | 0.00 | 0.00 | 72 | 1017.2 |
| 20260901012800 | 85 | 162 | 2.0 | 5.0 | 0.00 | 0.00 | 0.00 | 71 | 1017.0 |
| 20260901011742 | 85 | 222 | 1.0 | 4.0 | 0.00 | 0.00 | 0.00 | 71 | 1017.0 |
| 20260901010802 | 86 | 245 | 0.0 | 1.0 | 0.00 | 0.00 | 0.00 | 70 | 1017.1 |
| 20260901005803 | 86 | 174 | 0.0 | 0.0 | 0.00 | 0.00 | 0.00 | 70 | 1017.1 |
| 20260901004827 | 87 | 224 | 0.0 | 5.0 | 0.00 | 0.00 | 0.00 | 68 | 1016.9 |
| 20260901003832 | 87 | 242 | 3.0 | 5.0 | 0.00 | 0.00 | 0.00 | 68 | 1016.8 |
| 20260901002819 | 87 | 238 | 2.0 | 4.0 | 0.00 | 0.00 | 0.00 | 67 | 1016.8 |
| 20260901000646 | 88 | 219 | 4.0 | 9.0 | 0.00 | 0.00 | 0.00 | 65 | 1016.9 |
| 20260831235650 | 89 | 191 | 4.0 | 8.0 | 0.00 | 0.00 | 0.00 | 64 | 1016.9 |
| 20260831234643 | 89 | 226 | 4.0 | 9.0 | 0.00 | 0.00 | 0.00 | 63 | 1017.1 |
| 20260831233626 | 90 | 231 | 4.0 | 9.0 | 0.00 | 0.00 | 0.00 | 62 | 1017.1 |
| 20260831232616 | 90 | 231 | 5.0 | 9.0 | 0.00 | 0.00 | 0.00 | 61 | 1017.1 |
| 20260831231601 | 91 | 228 | 4.0 | 11.0 | 0.00 | 0.00 | 0.00 | 59 | 1017.1 |
| 20260831224312 | 92 | 269 | 5.0 | 11.0 | 0.00 | 0.00 | 0.00 | 56 | 1016.9 |
| 20260831223257 | 92 | 219 | 6.0 | 11.0 | 0.00 | 0.00 | 0.00 | 55 | 1016.9 |
| 20260831222247 | 93 | 233 | 5.0 | 13.0 | 0.00 | 0.00 | 0.00 | 55 | 1017.0 |
| 20260831221216 | 93 | 228 | 6.0 | 13.0 | 0.00 | 0.00 | 0.00 | 55 | 1017.0 |
| 20260831220227 | 93 | 164 | 5.0 | 12.0 | 0.00 | 0.00 | 0.00 | 55 | 1017.0 |
| 20260831215251 | 92 | 270 | 6.0 | 14.0 | 0.00 | 0.00 | 0.00 | 55 | 1017.0 |
| 20260831214310 | 92 | 224 | 7.0 | 14.0 | 0.00 | 0.00 | 0.00 | 54 | 1017.1 |
| 20260831213247 | 93 | 205 | 3.0 | 12.0 | 0.00 | 0.00 | 0.00 | 54 | 1017.2 |
| 20260831205910 | 91 | 241 | 5.0 | 11.0 | 0.00 | 0.00 | 0.00 | 58 | 1017.6 |
| 20260831204926 | 92 | 218 | 4.0 | 11.0 | 0.00 | 0.00 | 0.00 | 56 | 1017.7 |
| 20260831203948 | 92 | 267 | 4.0 | 11.0 | 0.00 | 0.00 | 0.00 | 56 | 1017.9 |
| 20260831202914 | 92 | 237 | 3.0 | 8.0 | 0.00 | 0.00 | 0.00 | 55 | 1017.8 |
| 20260831201924 | 93 | 257 | 3.0 | 11.0 | 0.00 | 0.00 | 0.00 | 56 | 1017.8 |
| 20260831200927 | 92 | 189 | 6.0 | 13.0 | 0.00 | 0.00 | 0.00 | 54 | 1018.0 |
| 20260831195901 | 92 | 216 | 7.0 | 13.0 | 0.00 | 0.00 | 0.00 | 53 | 1018.0 |
| 20260831194914 | 94 | 95 | 6.0 | 11.0 | 0.00 | 0.00 | 0.00 | 51 | 1018.2 |
| 20260831193903 | 94 | 241 | 5.0 | 11.0 | 0.00 | 0.00 | 0.00 | 51 | 1018.4 |
| 20260831192909 | 94 | 252 | 4.0 | 13.0 | 0.00 | 0.00 | 0.00 | 52 | 1018.4 |
| 20260831191840 | 93 | 191 | 5.0 | 13.0 | 0.00 | 0.00 | 0.00 | 55 | 1018.5 |
| 20260831190852 | 94 | 240 | 3.0 | 11.0 | 0.00 | 0.00 | 0.00 | 53 | 1018.7 |
| 20260831184712 | 92 | 219 | 7.0 | 12.0 | 0.00 | 0.00 | 0.00 | 54 | 1019.0 |
| 20260831180332 | 93 | 281 | 4.0 | 11.0 | 0.00 | 0.00 | 0.00 | 55 | 1019.2 |
| 20260831175335 | 92 | 239 | 5.0 | 15.0 | 0.00 | 0.00 | 0.00 | 56 | 1019.4 |
| 20260831174341 | 91 | 251 | 7.0 | 15.0 | 0.00 | 0.00 | 0.00 | 58 | 1019.2 |
| 20260831173309 | 92 | 219 | 5.0 | 14.0 | 0.00 | 0.00 | 0.00 | 57 | 1019.3 |
| 20260831172238 | 92 | 251 | 4.0 | 10.0 | 0.00 | 0.00 | 0.00 | 59 | 1019.3 |
| 20260831171234 | 92 | 240 | 3.0 | 10.0 | 0.00 | 0.00 | 0.00 | 58 | 1019.4 |
| 20260831170207 | 93 | 302 | 2.0 | 8.0 | 0.00 | 0.00 | 0.00 | 59 | 1019.5 |
| 20260831164111 | 91 | 237 | 3.0 | 8.0 | 0.00 | 0.00 | 0.00 | 60 | 1019.7 |
| 20260831163116 | 91 | 245 | 2.0 | 8.0 | 0.00 | 0.00 | 0.00 | 59 | 1019.7 |
| 20260831160927 | 88 | 229 | 6.0 | 12.0 | 0.00 | 0.00 | 0.00 | 64 | 1019.8 |
| 20260831155924 | 89 | 237 | 4.0 | 10.0 | 0.00 | 0.00 | 0.00 | 64 | 1019.7 |
| 20260831151610 | 86 | 152 | 4.0 | 9.0 | 0.00 | 0.00 | 0.00 | 70 | 1019.8 |
| 20260831150546 | 85 | 179 | 4.0 | 10.0 | 0.00 | 0.00 | 0.00 | 71 | 1019.8 |
| 20260831145603 | 84 | 231 | 4.0 | 10.0 | 0.00 | 0.00 | 0.00 | 72 | 1019.7 |
| 20260831143419 | 83 | 101 | 4.0 | 10.0 | 0.00 | 0.00 | 0.00 | 74 | 1019.6 |
| 20260831141254 | 81 | 237 | 5.0 | 12.0 | 0.00 | 0.00 | 0.00 | 74 | 1019.6 |
| 20260831134016 | 79 | 216 | 1.0 | 6.0 | 0.00 | 0.00 | 0.00 | 77 | 1019.6 |
| 20260831133009 | 79 | 319 | 2.0 | 6.0 | 0.00 | 0.00 | 0.00 | 79 | 1019.7 |
| 20260831132014 | 78 | 240 | 2.0 | 4.0 | 0.00 | 0.00 | 0.00 | 80 | 1019.6 |
| 20260831131003 | 77 | 226 | 2.0 | 6.0 | 0.00 | 0.00 | 0.00 | 82 | 1019.5 |
| 20260831125947 | 76 | 133 | 3.0 | 6.0 | 0.00 | 0.00 | 0.00 | 83 | 1019.5 |
| 20260831124934 | 75 | 176 | 2.0 | 5.0 | 0.00 | 0.00 | 0.00 | 84 | 1019.4 |
| 20260831123931 | 74 | 235 | 3.0 | 5.0 | 0.00 | 0.00 | 0.00 | 86 | 1019.3 |
| 20260831122928 | 73 | 166 | 1.0 | 4.0 | 0.00 | 0.00 | 0.00 | 86 | 1019.4 |
| 20260831121913 | 73 | 60 | 1.0 | 5.0 | 0.00 | 0.00 | 0.00 | 87 | 1019.3 |
| 20260831120851 | 73 | 205 | 1.0 | 5.0 | 0.00 | 0.00 | 0.00 | 87 | 1019.1 |
| 20260831114701 | 73 | 160 | 1.0 | 3.0 | 0.00 | 0.00 | 0.00 | 87 | 1019.2 |
| 20260831113706 | 73 | 101 | 0.0 | 1.0 | 0.00 | 0.00 | 0.00 | 88 | 1019.1 |
| 20260831112645 | 72 | 169 | 0.0 | 0.0 | 0.00 | 0.00 | 0.00 | 88 | 1019.1 |
| 20260831110509 | 72 | 229 | 0.0 | 3.0 | 0.00 | 0.00 | 0.00 | 87 | 1019.0 |
| 20260831105451 | 73 | 87 | 0.0 | 3.0 | 0.00 | 0.00 | 0.00 | 87 | 1018.9 |
| 20260831103413 | 73 | 123 | 1.0 | 3.0 | 0.00 | 0.00 | 0.00 | 86 | 1018.5 |
| 20260831102423 | 73 | 131 | 1.0 | 2.0 | 0.00 | 0.00 | 0.00 | 86 | 1018.3 |
| 20260831101447 | 73 | 181 | 1.0 | 3.0 | 0.00 | 0.00 | 0.00 | 86 | 1018.4 |
| 20260831095305 | 73 | 108 | 0.0 | 0.0 | 0.00 | 0.00 | 0.00 | 87 | 1018.3 |
| 20260831094320 | 73 | 108 | 0.0 | 0.0 | 0.00 | 0.00 | 0.00 | 88 | 1018.3 |
| 20260831093337 | 73 | 108 | 0.0 | 0.0 | 0.00 | 0.00 | 0.00 | 86 | 1018.4 |
| 20260831092344 | 73 | 108 | 0.0 | 0.0 | 0.00 | 0.00 | 0.00 | 86 | 1018.3 |
| 20260831091340 | 73 | 108 | 0.0 | 0.0 | 0.00 | 0.00 | 0.00 | 86 | 1018.5 |
| 20260831090348 | 74 | 108 | 0.0 | 0.0 | 0.00 | 0.00 | 0.00 | 86 | 1018.4 |
| 20260831085344 | 74 | 108 | 0.0 | 0.0 | 0.00 | 0.00 | 0.00 | 86 | 1018.2 |
| 20260831084356 | 74 | 108 | 0.0 | 0.0 | 0.00 | 0.00 | 0.00 | 85 | 1018.1 |
| 20260831083345 | 74 | 108 | 0.0 | 0.0 | 0.00 | 0.00 | 0.00 | 85 | 1017.9 |
| 20260831082340 | 74 | 127 | 0.0 | 2.0 | 0.00 | 0.00 | 0.00 | 86 | 1017.8 |
| 20260831081332 | 74 | 169 | 1.0 | 4.0 | 0.00 | 0.00 | 0.00 | 85 | 1017.6 |
| 20260831080334 | 74 | 176 | 1.0 | 4.0 | 0.00 | 0.00 | 0.00 | 85 | 1017.4 |
| 20260831074219 | 74 | 166 | 1.0 | 3.0 | 0.00 | 0.00 | 0.00 | 84 | 1017.4 |
| 20260831073238 | 74 | 248 | 0.0 | 2.0 | 0.00 | 0.00 | 0.00 | 84 | 1017.6 |
| 20260831072227 | 75 | 202 | 0.0 | 0.0 | 0.00 | 0.00 | 0.00 | 82 | 1017.8 |
| 20260831071215 | 75 | 152 | 1.0 | 3.0 | 0.00 | 0.00 | 0.00 | 82 | 1017.9 |
| 20260831070204 | 75 | 231 | 0.0 | 2.0 | 0.00 | 0.00 | 0.00 | 81 | 1017.9 |
| 20260831065200 | 76 | 21 | 0.0 | 2.0 | 0.00 | 0.00 | 0.00 | 81 | 1018.0 |
| 20260831064203 | 75 | 122 | 0.0 | 2.0 | 0.00 | 0.00 | 0.00 | 81 | 1018.1 |
| 20260831063221 | 75 | 133 | 0.0 | 1.0 | 0.00 | 0.00 | 0.00 | 80 | 1018.2 |
| 20260831062244 | 75 | 245 | 0.0 | 1.0 | 0.00 | 0.00 | 0.00 | 81 | 1018.4 |
| 20260831061218 | 75 | 58 | 0.0 | 0.0 | 0.00 | 0.00 | 0.00 | 82 | 1018.5 |